This demonstration page uses our WeatherBlox Daily Observations layout. Learn more.

Left ArrowRight Arrow

34.16533, -84.80231

Hourly Observations for July 31, 2016

Temp ( °F °C ) Dew Point ( °F °C ) Humidity (%) Winds ( mph kmh ) Pressure ( in mb ) Visibility ( mi km ) Precip ( " mm )
12:53 am 00:53 Clear 73 22.8 71 21.7 94 94 Calm 30.01 1016 10 16 0.00 0.00
1:53 am 01:53 Clear 71 21.7 70 21.1 96 96 Calm 30.01 1016 10 16 0.00 0.00
2:53 am 02:53 Clear 70 21.1 69 20.6 97 97 Calm 30.00 1016 8 13 0.00 0.00
3:53 am 03:53 Clear 70 21.1 69 20.6 97 97 Calm 30.00 1016 9 14 0.00 0.00
4:53 am 04:53 Clear 70 21.1 69 20.6 97 97 Calm 30.01 1016 7 11 0.00 0.00
5:53 am 05:53 Clear 68 20 67 19.4 96 96 Calm 30.00 1016 8 13 0.00 0.00
6:53 am 06:53 Sunny 68 20 67 19.4 96 96 Calm 30.02 1017 8 13 0.00 0.00
7:35 am 07:35 Partly Cloudy 70 21.1 69 20.6 97 97 Calm 30.03 1017 8 13 0.00 0.00
7:46 am 07:46 Mostly Cloudy 71 21.7 70 21.1 96 96 Calm 30.03 1017 9 14 0.00 0.00
7:53 am 07:53 Mostly Cloudy 72 22.2 70 21.1 94 94 Calm 30.03 1017 9 14 0.00 0.00
8:26 am 08:26 Partly Cloudy 73 22.8 71 21.7 94 94 Calm 30.03 1017 8 13 0.00 0.00
8:53 am 08:53 Sunny 76 24.4 72 22.2 88 88 Calm 30.04 1017 10 16 0.00 0.00
9:53 am 09:53 Sunny 80 26.7 71 21.7 74 74 VRB 3 6 30.04 1017 10 16 0.00 0.00
10:53 am 10:53 Sunny 84 28.9 71 21.7 65 65 VRB 3 6 30.05 1018 10 16 0.00 0.00
11:53 am 11:53 Sunny 87 30.6 71 21.7 59 59 VRB 5 7 30.06 1018 10 16 0.00 0.00
12:53 pm 12:53 Mostly Sunny 88 31.1 70 21.1 55 55 VRB 3 6 30.04 1017 10 16 0.00 0.00
1:53 pm 13:53 Partly Cloudy 91 32.8 71 21.7 52 52 N 7 11 30.02 1017 10 16 0.00 0.00
2:53 pm 14:53 Mostly Sunny 91 32.8 69 20.6 49 49 VRB 6 9 29.99 1016 10 16 0.00 0.00
3:53 pm 15:53 Mostly Sunny 92 33.3 68 20 46 46 VRB 5 7 29.97 1015 10 16 0.00 0.00
4:53 pm 16:53 Partly Cloudy 88 31.1 69 20.6 54 54 N 16 26 29.97 1015 10 16 0.00 0.00
5:18 pm 17:18 Cloudy with Nearby Thunderstorms 85 29.4 71 21.7 63 63 VRB 6 9 29.97 1015 10 16 0.00 0.00
5:26 pm 17:26 Cloudy with Thunderstorms 82 27.8 73 22.8 74 74 VRB 3 6 29.97 1015 3 4 0.03 0.76
5:31 pm 17:31 Cloudy with Strong Thunderstorms 78 25.6 74 23.3 87 87 undefined N/A 30.00 1016 1 1 0.15 3.81
5:44 pm 17:44 Cloudy with Strong Thunderstorms 75 23.9 71 21.7 88 88 S 13 20 30.03 1017 2 2 0.32 8.13
5:53 pm 17:53 Mostly Cloudy with Thunderstorms 75 23.9 72 22.2 90 90 SSE 10 17 29.98 1015 3 4 0.36 9.14
6:00 pm 18:00 Mostly Cloudy with Thunderstorms 74 23.3 71 21.7 91 91 SSE 9 15 30.03 1017 10 16 0.00 0.03
6:16 pm 18:16 Mostly Cloudy with Nearby Thunderstorms 74 23.3 71 21.7 91 91 Calm 30.03 1017 10 16 0.00 0.03
6:53 pm 18:53 Mostly Cloudy with Nearby Thunderstorms 75 23.9 72 22.2 90 90 SSE 14 22 30.01 1016 10 16 0.00 0.03
7:13 pm 19:13 Mostly Sunny 77 25 73 22.8 88 88 S 12 19 30.00 1016 10 16 0.00 0.00
7:53 pm 19:53 Mostly Cloudy 78 25.6 73 22.8 85 85 SE 3 6 30.01 1016 10 16 0.00 0.00
8:53 pm 20:53 Clear 76 24.4 73 22.8 91 91 ESE 3 6 30.02 1017 10 16 0.00 0.00
9:53 pm 21:53 Clear 74 23.3 73 22.8 97 97 Calm 30.04 1017 10 16 0.00 0.00
10:53 pm 22:53 Mostly Clear 74 23.3 73 22.8 97 97 Calm 30.06 1018 10 16 0.00 0.00
11:53 pm 23:53 Clear 73 22.8 72 22.2 96 96 Calm 30.06 1018 10 16 0.00 0.00

Powered by AerisWeather